Temperature
19 18 19 19 19 19 19 19 19 19 19 19 19 20 20 20 19 19 19 19 19 19 19 19 19 19 19 19 19 19 19 19 19 19 19 19 19 19 19 19 18 18 19
19 18 19 19 19 19 19 19 19 19 19 19 19 19 19 19 19 19 19 19 19 19 19 19 19 19 19 19 19 19 19 19 19 19 19 19 19 19 19 19 18 18 18
19 18 19 19 19 19 19 19 19 19 19 19 19 19 19 19 19 19 19 19 19 19 19 19 19 19 19 19 19 19 19 19 19 19 18 18 18 19 18 18 18 18 18
18 18 18 19 19 19 19 19 19 19 19 19 19 19 19 19 19 19 19 19 19 19 19 19 19 19 18 18 18 18 18 18 18 18 18 18 18 18 18 18 18 18 18
18 18 18 19 19 19 19 19 19 19 19 19 19 19 19 19 19 19 19 19 19 19 19 18 18 18 18 18 18 18 18 18 18 18 17 17 18 18 18 18 18 18 18
18 18 18 18 18 18 18 18 18 18 18 19 18 18 18 19 19 19 19 19 18 18 18 18 18 18 18 18 18 18 18 18 18 17 17 17 18 18 18 18 18 18 18
18 18 18 18 18 18 18 18 18 18 18 18 18 18 18 18 18 18 18 18 18 18 18 18 18 18 18 18 18 18 18 18 17 17 17 17 17 18 18 18 18 18 18
18 18 18 18 18 18 18 18 18 18 18 18 18 18 18 18 18 18 18 18 18 18 18 18 18 18 18 18 18 18 18 18 17 17 17 17 18 18 18 18 18 18 18
18 17 17 17 17 18 18 18 18 18 18 18 18 18 18 18 18 18 18 18 18 18 18 18 18 18 18 18 18 18 18 18 17 17 17 17 18 18 18 18 18 18 18
17 17 17 17 17 17 17 17 17 17 18 18 18 18 18 18 18 18 18 18 18 18 18 18 18 18 18 18 18 18 18 18 17 17 17 17 18 18 18 18 18 18 18
17 17 17 17 17 17 17 17 17 17 17 18 18 18 18 18 17 17 17 18 18 18 18 18 18 18 18 18 18 18 18 17 17 17 17 18 18 18 18 18 18 18 18
17 16 16 16 16 17 17 17 17 17 17 17 17 17 17 17 17 17 17 18 18 18 18 18 18 18 18 17 18 18 17 17 17 17 17 18 18 18 17 18 18 17 17
16 16 16 16 16 16 16 16 16 16 17 17 17 17 17 17 17 17 17 18 18 18 18 18 18 17 17 17 18 18 18 18 18 18 18 18 18 18 17 17 17 17 17
15 15 15 15 15 15 15 15 15 16 16 16 16 16 17 17 17 17 17 17 17 18 17 17 17 17 17 18 18 18 18 18 18 18 17 18 18 17 17 17 17 17 17
15 15 15 14 14 14 15 15 15 15 15 16 16 16 16 16 17 17 17 17 17 17 17 17 17 18 18 18 18 18 18 18 18 18 18 18 18 17 17 17 17 17 17
15 15 14 14 14 14 14 14 14 14 15 15 15 15 16 16 16 16 17 17 17 17 17 17 17 17 17 17 18 18 18 18 18 18 17 17 18 18 17 17 17 17 17
15 14 14 14 13 13 14 14 14 14 14 14 14 15 15 15 16 16 16 16 17 17 17 17 17 17 17 17 17 17 18 18 18 18 18 17 17 17 17 17 17 17 17
14 14 13 13 13 13 13 13 13 13 14 14 14 14 14 15 15 15 16 16 16 16 17 17 17 17 17 17 17 17 18 17 17 18 18 18 17 17 17 17 17 17 17
14 13 13 13 13 13 13 13 13 13 13 13 13 14 14 14 14 15 15 15 16 16 16 16 17 17 17 17 17 17 17 17 18 18 18 18 18 17 17 17 17 17 17
13 13 13 13 13 13 13 13 13 13 13 13 13 13 13 14 14 14 15 15 15 16 16 16 16 16 17 17 17 17 17 17 17 18 18 18 18 18 17 17 17 17 17
13 13 13 13 13 12 12 13 13 13 13 13 13 13 13 13 13 14 14 14 15 15 16 16 16 16 16 16 16 16 17 17 17 17 17 18 18 18 17 17 17 17 17
13 13 13 13 12 12 12 12 12 12 12 12 12 12 13 13 13 13 14 14 14 15 15 15 15 15 16 16 16 16 16 16 17 17 17 17 18 18 17 17 17 17 17
13 13 13 12 12 12 12 12 12 12 12 12 12 12 12 13 13 13 13 14 14 14 14 15 15 15 15 16 16 16 16 16 16 17 17 17 17 17 17 17 17 17 17
13 13 13 12 12 12 12 12 12 12 12 12 12 12 12 12 13 13 13 14 14 14 14 14 14 15 15 15 15 16 16 16 16 16 17 17 17 17 17 17 17 17 17
13 12 12 12 12 12 12 12 12 12 12 12 12 12 12 12 12 13 13 13 13 14 14 14 14 14 15 15 15 15 15 16 16 16 16 16 17 17 17 17 17 17 17
13 12 12 12 12 12 12 12 12 12 11 12 12 12 12 12 12 12 13 13 13 13 14 14 14 14 14 14 15 15 15 15 16 16 16 16 16 16 16 17 17 17 16
Wind_Speed
5 6 9 7 7 7 7 6 6 6 6 6 6 6 6 5 5 5 3 3 2 1 1 1 1 2 2 3 3 3 4 4 4 4 4 4 4 4 4 4 4 5 7
5 6 8 7 7 7 7 6 6 6 6 6 6 6 5 5 5 4 3 3 2 1 1 0 0 1 1 2 2 3 3 3 3 3 1 3 4 3 3 3 2 5 6
4 6 8 6 6 7 7 6 6 6 6 6 6 6 5 5 5 4 4 3 3 3 2 1 1 0 0 1 2 2 2 2 2 1 3 2 5 4 3 3 3 5 5
4 4 4 5 5 5 6 6 6 7 7 7 6 6 6 6 5 5 5 4 4 4 3 2 2 1 1 1 1 2 2 2 1 3 3 1 2 6 2 3 3 4 5
3 2 3 1 2 3 4 6 6 7 7 7 7 7 7 6 6 6 6 5 5 5 4 4 3 2 2 1 1 1 2 1 2 5 1 1 2 4 2 2 3 4 5
4 3 4 3 2 2 3 5 6 7 7 8 8 8 8 8 8 8 7 7 6 6 5 5 4 4 3 2 1 1 2 1 6 2 0 0 2 4 1 1 2 4 5
5 5 5 7 6 5 4 4 5 7 8 8 9 9 9 9 9 9 9 8 8 7 7 6 5 5 4 3 2 2 2 4 5 2 1 0 3 3 1 1 2 3 4
7 7 7 7 8 8 7 6 6 6 7 8 9 10 10 10 11 10 10 10 9 9 8 7 6 6 5 4 3 3 3 7 4 2 1 1 4 1 1 1 1 2 4
8 8 8 8 8 8 8 8 8 8 8 8 9 10 11 11 12 12 11 11 10 10 9 8 7 7 6 5 4 4 3 4 6 3 3 1 4 2 2 1 1 2 4
8 8 8 8 9 9 8 7 9 9 9 9 9 10 10 12 13 13 13 13 12 11 11 10 9 8 7 6 6 5 4 7 7 4 3 3 4 2 2 2 2 2 4
8 7 7 7 8 8 7 7 7 7 7 8 8 9 10 11 12 12 14 11 12 12 12 11 10 9 9 9 8 6 7 8 4 5 3 5 2 3 3 2 2 3 4
9 8 7 7 7 7 6 6 6 6 6 7 8 8 9 9 10 12 9 11 13 13 13 12 11 11 12 10 11 10 9 7 6 5 3 5 2 3 4 4 3 4 5
9 9 9 8 8 8 6 6 5 5 6 6 7 8 8 9 9 10 8 9 11 12 12 11 12 11 10 8 7 8 7 6 5 5 4 5 3 3 4 5 4 5 5
9 10 9 10 9 9 8 7 6 6 6 6 7 8 7 6 7 7 6 8 8 8 8 9 8 9 9 9 10 9 8 7 6 5 4 6 4 4 5 5 5 5 6
9 10 11 11 10 10 8 7 7 7 7 8 8 8 8 6 7 7 6 6 8 8 8 7 8 8 8 9 9 9 8 8 7 7 5 7 5 5 6 6 6 6 7
10 11 11 11 10 10 9 8 8 8 8 9 8 9 10 8 7 6 6 6 7 8 8 7 8 7 7 7 9 9 8 8 8 7 6 8 9 7 7 7 7 7 7
11 11 11 11 11 11 10 10 9 9 9 8 8 10 10 9 9 8 7 7 7 8 8 7 8 7 7 8 9 9 8 8 8 8 7 6 8 10 9 8 8 8 8
11 11 11 10 11 11 10 10 8 9 9 8 8 9 9 10 10 8 7 8 7 7 6 6 7 6 7 7 7 7 7 7 9 8 8 9 8 7 10 10 8 8 9
10 11 11 11 11 11 11 9 9 8 8 8 8 7 8 9 9 9 7 7 7 6 7 7 7 7 7 6 6 6 7 7 7 8 9 9 9 8 8 12 10 9 9
10 10 10 10 11 11 9 8 8 8 7 7 7 7 8 9 9 9 7 8 7 6 6 7 7 7 6 6 7 6 6 6 6 7 8 8 8 10 8 9 10 11 11
10 10 10 11 11 10 8 8 8 8 8 7 6 8 8 8 8 8 7 7 7 7 7 8 7 7 6 6 5 5 6 7 7 6 7 7 8 8 9 9 9 9 11
10 10 11 11 11 10 9 8 7 8 7 7 6 7 8 8 7 7 7 6 7 7 8 8 8 6 6 6 5 4 4 5 6 7 7 7 8 7 8 9 10 9 8
10 10 9 11 11 10 10 8 8 7 7 6 7 6 7 7 7 7 7 7 6 7 7 8 9 9 7 7 7 5 4 6 4 5 7 7 7 6 7 8 9 9 9
9 9 10 10 10 10 10 9 10 8 8 9 8 7 8 7 6 6 6 7 7 6 7 7 8 8 8 7 6 7 5 2 4 4 5 7 7 7 8 8 8 9 9
8 8 9 10 10 10 10 9 9 8 8 7 8 8 8 6 6 5 5 5 6 6 7 7 7 8 8 8 7 6 6 5 5 4 4 5 5 6 7 7 7 7 9
7 8 8 9 9 10 9 9 9 10 10 9 9 8 7 6 5 5 5 5 6 6 6 7 7 8 8 8 8 7 6 6 6 5 4 5 6 5 6 5 6 6 7
Wind_Direction
163 162 143 175 174 175 177 177 176 172 172 170 168 165 164 166 168 167 168 171 171 164 134 111 93 81 74 60 57 58 58 62 70 77 78 81 84 94 103 122 159 125 107
156 160 147 181 183 183 182 185 188 186 184 181 180 181 181 181 180 180 187 194 204 211 208 165 94 78 67 56 51 53 60 59 59 67 81 136 113 96 109 114 31 93 115
148 156 164 181 189 193 191 194 201 202 199 196 196 196 194 193 195 200 206 213 221 227 231 235 240 195 44 35 35 44 50 48 51 43 253 186 125 114 120 128 120 123 134
135 155 160 155 196 206 207 209 214 215 213 209 209 208 206 208 212 216 221 225 230 234 237 240 247 254 272 4 12 29 25 23 20 265 245 82 112 105 122 136 143 142 138
105 112 98 106 225 237 236 232 232 232 231 227 225 221 219 220 224 227 229 230 235 238 241 245 251 261 263 293 340 5 3 356 265 262 7 35 81 97 120 147 151 155 147
74 58 62 35 358 311 278 262 253 250 246 241 237 233 229 229 232 231 230 234 238 240 241 241 245 254 259 266 298 325 335 307 258 270 340 238 109 104 122 163 170 163 160
50 38 37 35 11 353 327 301 282 273 263 255 250 246 242 241 239 236 235 237 238 241 240 239 244 248 250 253 264 284 294 285 277 277 260 190 86 100 135 160 178 168 172
37 26 23 30 13 1 346 327 306 292 284 270 263 256 252 250 248 243 240 241 240 242 242 241 244 249 247 248 252 260 272 278 250 253 245 169 88 137 164 172 181 175 173
36 28 20 11 7 5 355 345 329 311 298 289 279 268 257 252 252 250 246 245 244 243 243 241 239 243 245 248 250 251 261 277 275 256 240 170 116 179 181 185 181 184 175
37 27 19 13 5 353 344 350 337 326 316 302 286 277 268 257 251 248 246 238 241 244 242 239 237 236 237 241 242 242 248 249 244 240 239 124 125 206 196 190 185 180 162
29 20 12 7 4 352 339 343 322 315 320 311 292 280 271 258 253 245 243 239 239 244 244 239 235 234 234 225 226 228 238 243 227 245 232 99 158 216 203 192 175 162 152
16 9 3 352 349 343 337 331 314 307 299 291 288 281 274 265 258 255 248 238 242 244 244 238 234 232 234 226 201 205 230 226 234 225 172 122 202 213 199 185 178 167 157
7 3 357 346 340 336 326 317 308 302 294 277 271 272 270 267 260 252 250 239 238 238 240 225 222 228 228 231 233 221 229 236 229 224 162 141 200 207 198 189 186 178 172
360 354 350 345 338 335 330 321 305 298 294 288 279 273 266 263 261 256 245 243 245 242 239 239 235 229 231 231 231 233 221 226 227 226 163 154 200 207 199 190 188 185 181
354 348 346 340 336 333 329 316 308 304 300 294 287 279 269 265 264 257 254 248 246 246 240 237 239 235 233 235 235 238 232 224 226 221 184 166 197 208 199 192 189 187 184
349 345 344 338 335 330 323 316 313 307 299 293 287 281 275 265 260 257 254 253 248 245 247 241 237 235 232 232 233 231 237 229 228 218 213 182 189 202 203 196 190 186 185
344 342 343 336 336 332 326 320 311 304 301 296 291 286 280 273 266 258 253 252 248 238 239 244 243 237 233 228 227 228 226 231 230 221 212 212 193 190 197 199 194 190 189
343 342 341 338 335 334 329 319 313 308 305 297 293 288 284 278 270 265 257 251 245 237 234 233 238 233 227 227 226 219 223 219 231 226 218 210 208 197 187 189 191 189 190
342 340 341 341 337 334 330 320 315 310 304 299 296 293 290 285 277 269 261 259 250 240 234 234 227 223 226 224 227 223 226 222 226 226 227 221 204 203 192 169 184 188 191
342 342 343 340 339 337 333 327 324 317 313 307 302 297 297 290 283 276 264 256 252 242 236 233 228 220 224 219 226 223 222 226 226 230 233 227 216 204 200 183 185 188 189
346 346 346 344 344 342 339 333 330 327 322 317 311 308 299 291 286 277 272 262 249 244 239 233 232 223 219 210 210 219 221 225 223 221 230 226 218 207 202 197 196 186 183
347 347 347 347 345 344 340 329 320 319 315 318 316 314 310 300 292 282 271 266 253 247 241 233 226 221 218 205 198 198 210 214 220 214 213 221 221 204 212 207 199 192 192
349 347 345 345 342 344 340 334 331 329 320 327 327 323 319 311 300 289 277 268 261 255 246 236 227 222 217 211 207 197 201 213 192 203 212 212 216 209 209 213 210 198 194
347 345 343 344 343 344 340 340 340 334 330 328 324 320 319 315 307 295 282 271 261 255 252 244 235 232 223 216 211 218 225 214 187 186 202 209 211 211 213 210 214 208 199
345 345 342 341 343 345 343 342 334 336 331 328 327 327 326 324 316 304 290 273 262 255 252 248 244 237 231 225 214 207 211 218 220 199 191 193 204 212 215 214 209 212 204
344 342 342 342 346 345 342 343 343 339 336 334 335 332 328 325 321 321 307 286 270 261 254 249 246 239 234 229 223 214 204 199 204 202 198 193 197 204 208 209 214 206 203
Height
1552 1552 1551 1552 1553 1554 1554 1555 1556 1556 1557 1557 1558 1558 1558 1558 1558 1558 1558 1558 1558 1558 1557 1557 1557 1556 1556 1555 1555 1554 1553 1553 1552 1551 1551 1550 1550 1549 1549 1549 1549 1549 1548
1553 1553 1552 1553 1554 1554 1555 1556 1556 1557 1557 1557 1558 1558 1558 1558 1558 1558 1558 1558 1558 1558 1557 1557 1557 1556 1556 1556 1555 1555 1554 1553 1553 1552 1551 1551 1550 1550 1550 1549 1549 1550 1549
1553 1553 1553 1554 1554 1555 1556 1556 1557 1557 1557 1557 1557 1558 1558 1558 1558 1558 1558 1558 1558 1557 1557 1557 1557 1556 1556 1556 1555 1555 1554 1554 1553 1553 1552 1553 1552 1550 1550 1550 1550 1550 1550
1554 1555 1555 1554 1555 1555 1556 1556 1557 1557 1557 1557 1557 1557 1557 1557 1557 1557 1557 1557 1557 1557 1557 1557 1556 1556 1556 1556 1555 1555 1554 1554 1553 1553 1554 1554 1553 1551 1551 1550 1550 1550 1551
1555 1555 1555 1555 1555 1555 1556 1556 1556 1557 1557 1557 1557 1557 1557 1557 1557 1557 1557 1557 1557 1556 1556 1556 1556 1556 1556 1555 1555 1555 1554 1554 1554 1553 1554 1553 1552 1551 1551 1551 1551 1551 1551
1556 1556 1555 1555 1555 1555 1555 1555 1555 1556 1556 1556 1556 1556 1556 1556 1556 1556 1556 1556 1556 1556 1555 1555 1555 1555 1555 1555 1555 1554 1554 1554 1554 1555 1554 1553 1553 1551 1551 1551 1551 1551 1551
1556 1556 1556 1555 1554 1555 1555 1555 1554 1554 1554 1554 1554 1555 1554 1554 1554 1554 1554 1554 1554 1554 1554 1554 1554 1554 1554 1554 1554 1554 1554 1554 1554 1554 1553 1553 1552 1551 1551 1551 1551 1551 1552
1556 1555 1555 1554 1554 1553 1553 1553 1553 1553 1553 1553 1552 1553 1553 1553 1553 1553 1553 1553 1553 1553 1553 1553 1553 1553 1553 1553 1553 1553 1553 1553 1555 1555 1554 1553 1552 1551 1551 1551 1551 1552 1552
1555 1555 1554 1553 1553 1552 1552 1551 1551 1551 1551 1550 1550 1550 1551 1550 1550 1551 1551 1551 1551 1551 1551 1551 1552 1552 1552 1552 1552 1552 1552 1553 1553 1554 1554 1553 1552 1551 1551 1551 1551 1552 1552
1555 1554 1553 1552 1551 1551 1550 1549 1549 1548 1548 1548 1548 1548 1548 1548 1548 1548 1548 1548 1549 1549 1549 1549 1550 1550 1550 1550 1550 1551 1551 1552 1553 1554 1554 1553 1552 1551 1551 1551 1552 1552 1552
1555 1554 1553 1551 1550 1549 1548 1547 1546 1545 1545 1545 1545 1545 1545 1545 1546 1546 1546 1546 1546 1546 1547 1548 1548 1548 1548 1549 1549 1549 1550 1552 1553 1553 1553 1552 1551 1551 1551 1551 1551 1552 1552
1556 1554 1552 1551 1549 1547 1546 1544 1543 1543 1542 1541 1541 1541 1542 1542 1542 1543 1543 1543 1543 1543 1544 1545 1545 1546 1546 1548 1548 1548 1550 1551 1551 1552 1552 1551 1551 1551 1551 1551 1551 1552 1552
1555 1553 1551 1550 1548 1546 1544 1542 1541 1539 1538 1538 1538 1538 1538 1538 1539 1539 1540 1540 1540 1541 1542 1542 1543 1544 1545 1547 1548 1548 1549 1550 1551 1551 1551 1550 1550 1550 1550 1551 1551 1552 1552
1555 1553 1551 1548 1547 1545 1542 1540 1538 1537 1536 1535 1535 1535 1534 1534 1535 1535 1536 1536 1537 1537 1538 1540 1541 1542 1543 1544 1546 1547 1548 1548 1549 1550 1549 1548 1549 1549 1550 1550 1551 1552 1552
1554 1552 1549 1546 1545 1542 1540 1537 1536 1535 1533 1532 1530 1530 1530 1530 1530 1531 1531 1532 1533 1534 1535 1536 1537 1539 1540 1541 1543 1544 1546 1546 1547 1548 1548 1547 1548 1549 1549 1550 1550 1551 1552
1553 1551 1548 1545 1542 1540 1538 1536 1534 1532 1530 1528 1527 1527 1527 1526 1526 1526 1527 1528 1529 1530 1531 1532 1533 1535 1536 1538 1540 1541 1542 1544 1545 1546 1547 1547 1547 1548 1548 1549 1550 1551 1551
1552 1549 1546 1543 1540 1537 1535 1532 1530 1528 1527 1525 1524 1523 1523 1522 1522 1522 1522 1523 1525 1526 1527 1528 1529 1531 1532 1534 1536 1538 1539 1541 1543 1544 1545 1546 1547 1546 1547 1548 1548 1549 1550
1551 1548 1544 1541 1538 1535 1532 1529 1527 1525 1523 1522 1520 1519 1519 1518 1518 1518 1518 1519 1520 1521 1522 1523 1524 1526 1528 1530 1532 1534 1536 1537 1540 1542 1543 1544 1545 1546 1546 1546 1547 1548 1549
1549 1546 1543 1540 1536 1533 1530 1527 1525 1522 1520 1518 1517 1516 1515 1514 1514 1515 1514 1515 1516 1516 1517 1519 1520 1522 1524 1526 1529 1530 1532 1534 1537 1539 1541 1543 1543 1544 1546 1545 1546 1547 1548
1548 1545 1542 1538 1535 1532 1528 1525 1522 1520 1518 1516 1514 1512 1511 1510 1510 1510 1510 1510 1511 1512 1513 1514 1516 1518 1520 1522 1525 1527 1528 1530 1533 1535 1537 1539 1541 1543 1544 1545 1545 1545 1546
1547 1544 1541 1537 1534 1530 1527 1523 1520 1518 1515 1513 1511 1509 1507 1506 1506 1506 1506 1507 1507 1508 1509 1510 1512 1513 1515 1518 1521 1523 1524 1526 1529 1531 1533 1536 1538 1540 1541 1543 1544 1545 1545
1546 1542 1539 1536 1533 1529 1526 1522 1519 1516 1513 1510 1508 1506 1505 1503 1502 1502 1502 1503 1503 1504 1504 1506 1507 1509 1511 1513 1516 1518 1521 1524 1524 1527 1529 1532 1534 1536 1539 1541 1542 1543 1545
1544 1541 1538 1535 1532 1529 1525 1521 1518 1515 1512 1509 1507 1504 1502 1500 1499 1499 1499 1499 1499 1500 1501 1501 1503 1505 1507 1509 1511 1514 1516 1518 1520 1523 1525 1528 1530 1533 1535 1538 1540 1541 1543
1544 1540 1538 1534 1531 1528 1524 1521 1517 1514 1511 1508 1505 1502 1500 1498 1496 1496 1495 1495 1496 1496 1497 1498 1499 1501 1502 1504 1506 1509 1512 1514 1516 1518 1521 1523 1526 1528 1531 1534 1536 1539 1540
1542 1539 1537 1534 1531 1527 1524 1520 1516 1513 1510 1506 1503 1500 1498 1496 1494 1493 1492 1492 1492 1493 1493 1494 1495 1497 1498 1500 1502 1504 1507 1510 1512 1514 1516 1519 1522 1524 1527 1530 1532 1535 1537
1542 1539 1536 1532 1529 1526 1523 1520 1516 1512 1509 1506 1502 1499 1496 1494 1492 1491 1490 1489 1489 1490 1490 1491 1492 1493 1494 1496 1498 1500 1503 1505 1507 1510 1513 1515 1517 1520 1523 1525 1528 1531 1532